When you browse on this site, cookies collect data to enhance your experience and personalize the content and advertising you see.
Visit our Privacy Policy to learn more. By continuing to use the site, you agree to this use of cookies and data.
  • In Austria
  • List of Countries
  • For 7 days
  • Water Temperature
  • Satellite Maps
  • Weather Map
  • News
  • Weather Widgets
  • user-avatar
    Login

    Hourly Weather Maidstone

    Today, 14 December, Friday

    Time Temperature Precipitation Wind Pressure Humidity
    00:00 -1°C° 0 mm 4 mps 763 mmHg 73%
    01:00 -1°C° 0 mm 4 mps 763 mmHg 74%
    02:00 -1°C° 0 mm 4 mps 763 mmHg 74%
    03:00 -1°C° 0 mm 4 mps 763 mmHg 74%
    04:00 0°C° 0 mm 3 mps 764 mmHg 75%
    05:00 0°C° 0 mm 3 mps 764 mmHg 76%
    06:00 0°C° 0 mm 3 mps 764 mmHg 77%
    07:00 +1°C° 0 mm 3 mps 764 mmHg 77%
    08:00 0°C° 0 mm 4 mps 764 mmHg 76%
    09:00 0°C° 0 mm 4 mps 764 mmHg 75%
    10:00 +1°C° 0 mm 4 mps 765 mmHg 72%
    11:00 +3°C° 0 mm 4 mps 765 mmHg 68%
    12:00 +3°C° 0 mm 4 mps 765 mmHg 65%
    13:00 +3°C° 0 mm 3 mps 765 mmHg 66%
    14:00 +3°C° 0 mm 3 mps 765 mmHg 67%
    15:00 +3°C° 0 mm 2 mps 765 mmHg 68%
    16:00 +2°C° 0 mm 3 mps 765 mmHg 69%
    17:00 +1°C° 0 mm 3 mps 765 mmHg 71%
    18:00 +1°C° 0 mm 3 mps 765 mmHg 73%
    19:00 +1°C° 0 mm 3 mps 765 mmHg 72%
    20:00 0°C° 0 mm 4 mps 765 mmHg 72%
    21:00 0°C° 0 mm 4 mps 765 mmHg 71%
    22:00 0°C° 0 mm 4 mps 765 mmHg 72%
    23:00 0°C° 0 mm 4 mps 765 mmHg 72%

    Tomorrow, 15 December, Saturday

    Time Temperature Precipitation Wind Pressure Humidity
    00:00 0°C° 0 mm 4 mps 765 mmHg 72%
    01:00 0°C° 0 mm 5 mps 764 mmHg 72%
    02:00 0°C° 0 mm 5 mps 764 mmHg 72%
    03:00 0°C° 0 mm 5 mps 763 mmHg 72%
    04:00 -1°C° 0 mm 6 mps 763 mmHg 72%
    05:00 -1°C° 0 mm 6 mps 763 mmHg 72%
    06:00 -1°C° 0 mm 7 mps 762 mmHg 71%
    07:00 -1°C° 0 mm 7 mps 762 mmHg 70%
    08:00 0°C° 0 mm 8 mps 761 mmHg 69%
    09:00 0°C° 0 mm 8 mps 761 mmHg 68%
    10:00 0°C° 0 mm 9 mps 760 mmHg 68%
    11:00 0°C° 0 mm 9 mps 759 mmHg 67%
    12:00 +1°C° 0 mm 9 mps 758 mmHg 66%
    13:00 +1°C° 0.5 mm 10 mps 757 mmHg 71%
    14:00 +1°C° 0.5 mm 10 mps 755 mmHg 76%
    15:00 +1°C° 0.5 mm 11 mps 754 mmHg 81%
    16:00 +1°C° 1.3 mm 11 mps 753 mmHg 84%
    17:00 +2°C° 1.3 mm 12 mps 752 mmHg 87%
    18:00 +2°C° 1.3 mm 12 mps 751 mmHg 89%
    19:00 +3°C° 1.5 mm 12 mps 749 mmHg 89%
    20:00 +5°C° 1.5 mm 12 mps 748 mmHg 89%
    21:00 +7°C° 1.5 mm 12 mps 747 mmHg 89%
    22:00 +7°C° 0.1 mm 12 mps 747 mmHg 85%
    23:00 +7°C° 0.1 mm 12 mps 747 mmHg 80%

    Day after tomorrow, 16 December, Sunday

    Time Temperature Precipitation Wind Pressure Humidity
    00:00 +7°C° 0.1 mm 12 mps 747 mmHg 76%
    01:00 +7°C° 0 mm 11 mps 747 mmHg 75%
    02:00 +6°C° 0 mm 11 mps 748 mmHg 75%
    03:00 +5°C° 0 mm 10 mps 749 mmHg 74%
    04:00 +5°C° 0 mm 9 mps 750 mmHg 75%
    05:00 +5°C° 0 mm 8 mps 751 mmHg 76%
    06:00 +4°C° 0 mm 7 mps 751 mmHg 78%
    07:00 +4°C° 0 mm 7 mps 752 mmHg 79%
    08:00 +4°C° 0 mm 6 mps 752 mmHg 80%
    09:00 +5°C° 0 mm 5 mps 753 mmHg 81%
    10:00 +6°C° 0 mm 5 mps 753 mmHg 78%
    11:00 +7°C° 0 mm 5 mps 753 mmHg 74%
    12:00 +8°C° 0 mm 5 mps 753 mmHg 71%
    13:00 +7°C° 0 mm 5 mps 753 mmHg 74%
    14:00 +7°C° 0 mm 5 mps 753 mmHg 76%
    15:00 +7°C° 0 mm 4 mps 753 mmHg 78%
    16:00 +6°C° 0.1 mm 4 mps 754 mmHg 80%
    17:00 +6°C° 0.1 mm 4 mps 754 mmHg 83%
    18:00 +6°C° 0.1 mm 4 mps 754 mmHg 85%
    19:00 +6°C° 0.6 mm 4 mps 755 mmHg 86%
    20:00 +6°C° 0.6 mm 4 mps 755 mmHg 87%
    21:00 +6°C° 0.6 mm 4 mps 755 mmHg 88%
    22:00 +6°C° 0.5 mm 4 mps 755 mmHg 89%
    23:00 +6°C° 0.5 mm 4 mps 755 mmHg 90%

    17 December, Monday

    Time Temperature Precipitation Wind Pressure Humidity
    00:00 +5°C° 0.5 mm 4 mps 756 mmHg 91%
    01:00 +5°C° 0.2 mm 3 mps 756 mmHg 91%
    02:00 +5°C° 0.2 mm 3 mps 756 mmHg 90%
    03:00 +4°C° 0.2 mm 3 mps 757 mmHg 90%
    04:00 +4°C° 0 mm 3 mps 757 mmHg 89%
    05:00 +4°C° 0 mm 3 mps 758 mmHg 89%
    06:00 +3°C° 0 mm 3 mps 758 mmHg 88%
    07:00 +3°C° 0 mm 3 mps 759 mmHg 88%
    08:00 +4°C° 0 mm 3 mps 759 mmHg 87%
    09:00 +4°C° 0 mm 4 mps 760 mmHg 87%
    10:00 +5°C° 0 mm 4 mps 760 mmHg 83%
    11:00 +6°C° 0 mm 4 mps 761 mmHg 79%
    12:00 +7°C° 0 mm 4 mps 761 mmHg 76%
    13:00 +7°C° 0 mm 4 mps 761 mmHg 77%
    14:00 +7°C° 0 mm 4 mps 761 mmHg 79%
    15:00 +7°C° 0 mm 4 mps 761 mmHg 81%
    16:00 +7°C° 0 mm 5 mps 761 mmHg 83%
    17:00 +7°C° 0 mm 5 mps 761 mmHg 85%
    18:00 +7°C° 0 mm 6 mps 761 mmHg 87%
    19:00 +6°C° 0 mm 7 mps 761 mmHg 87%
    20:00 +6°C° 0 mm 7 mps 761 mmHg 87%
    21:00 +7°C° 0 mm 8 mps 761 mmHg 87%
    22:00 +7°C° 0 mm 8 mps 761 mmHg 87%
    23:00 +7°C° 0 mm 8 mps 761 mmHg 87%

    18 December, Tuesday

    Time Temperature Precipitation Wind Pressure Humidity
    00:00 +7°C° 0 mm 9 mps 760 mmHg 86%
    01:00 +8°C° 0 mm 9 mps 760 mmHg 85%
    02:00 +8°C° 0 mm 9 mps 759 mmHg 84%
    03:00 +8°C° 0 mm 9 mps 758 mmHg 83%
    04:00 +8°C° 0 mm 9 mps 758 mmHg 82%
    05:00 +8°C° 0 mm 10 mps 757 mmHg 81%
    06:00 +8°C° 0 mm 10 mps 757 mmHg 79%
    07:00 +7°C° 0 mm 10 mps 756 mmHg 77%
    08:00 +7°C° 0 mm 11 mps 756 mmHg 75%
    09:00 +7°C° 0 mm 11 mps 755 mmHg 73%
    10:00 +7°C° 0 mm 12 mps 754 mmHg 70%
    11:00 +7°C° 0 mm 13 mps 753 mmHg 67%
    12:00 +7°C° 0 mm 13 mps 751 mmHg 65%
    13:00 +7°C° 0.7 mm 13 mps 750 mmHg 70%
    14:00 +7°C° 0.7 mm 13 mps 750 mmHg 75%
    15:00 +7°C° 0.7 mm 13 mps 749 mmHg 80%
    16:00 +7°C° 0.6 mm 12 mps 749 mmHg 79%
    17:00 +7°C° 0.6 mm 11 mps 749 mmHg 77%
    18:00 +8°C° 0.6 mm 10 mps 749 mmHg 76%
    19:00 +7°C° 0 mm 9 mps 750 mmHg 76%
    20:00 +7°C° 0 mm 8 mps 750 mmHg 76%
    21:00 +6°C° 0 mm 8 mps 750 mmHg 76%
    22:00 +6°C° 0 mm 8 mps 751 mmHg 77%
    23:00 +6°C° 0 mm 8 mps 751 mmHg 78%

    19 December, Wednesday

    Time Temperature Precipitation Wind Pressure Humidity
    00:00 +6°C° 0 mm 7 mps 751 mmHg 79%
    01:00 +6°C° 0.3 mm 7 mps 751 mmHg 80%
    02:00 +6°C° 0.3 mm 7 mps 752 mmHg 81%
    03:00 +6°C° 0.3 mm 7 mps 752 mmHg 82%
    04:00 +6°C° 0.6 mm 7 mps 752 mmHg 80%
    05:00 +6°C° 0.6 mm 7 mps 752 mmHg 79%
    06:00 +7°C° 0.6 mm 6 mps 751 mmHg 77%
    07:00 +5°C° 0.1 mm 6 mps 752 mmHg 76%
    08:00 +5°C° 0.1 mm 7 mps 752 mmHg 76%
    09:00 +5°C° 0.1 mm 7 mps 752 mmHg 75%
    10:00 +6°C° 0.1 mm 8 mps 752 mmHg 73%
    11:00 +6°C° 0.1 mm 8 mps 752 mmHg 70%
    12:00 +7°C° 0.1 mm 9 mps 752 mmHg 68%
    13:00 +7°C° 0.2 mm 8 mps 752 mmHg 68%
    14:00 +7°C° 0.2 mm 8 mps 752 mmHg 69%
    15:00 +6°C° 0.2 mm 8 mps 752 mmHg 70%
    16:00 +6°C° 0.1 mm 8 mps 751 mmHg 71%
    17:00 +6°C° 0.1 mm 8 mps 751 mmHg 72%
    18:00 +6°C° 0.1 mm 8 mps 751 mmHg 73%
    19:00 +6°C° 0.1 mm 8 mps 751 mmHg 74%
    20:00 +6°C° 0.1 mm 8 mps 751 mmHg 75%
    21:00 +6°C° 0.1 mm 9 mps 750 mmHg 76%
    22:00 +6°C° 0.3 mm 9 mps 750 mmHg 77%
    23:00 +6°C° 0.3 mm 9 mps 750 mmHg 77%
    Show more